Hourly Data Report for October 11, 2013

All times are specified in Local Standard Time (LST). Add 1 hour to adjust for Daylight Saving Time where and when it is observed.

RANKIN INLET A
NUNAVUT

62°48'38.000" N
92°06'53.000" W
32.30 m
2303405
71083
YRT

Download Data

Hourly Data (October 2013)
Hourly Data Report for October 11, 2013
Temp Definition
°C
Dew Point Temp Definition
°C
Rel Hum Definition
%
Wind Dir Definition
10's deg

Wind Spd Definition
km/h
Visibility Definition
km
Stn Press Definition
kPa
Hmdx Definition


Wind Chill Definition


Weather Definition


TIME
00:00 Legend Double Dagger 3.2 2.8 97 17 35 4.8 100.72     Rain Showers,Fog
01:00 Legend Double Dagger 3.3 3.0 98 18 40 4.8 100.66     Rain Showers,Fog
02:00 Legend Double Dagger 3.4 3.1 98 18 37 9.7 100.65     Rain Showers,Fog
03:00 Legend Double Dagger 3.7 3.1 96 17 39 9.7 100.63     Rain Showers,Fog
04:00 Legend Double Dagger 3.9 3.2 95 18 32 9.7 100.64     Rain Showers,Fog
05:00 Legend Double Dagger 4.1 3.2 94 17 26 9.7 100.66     Moderate Rain Showers,Fog
06:00 Legend Double Dagger 4.3 3.3 93 18 28 16.1 100.64     Rain Showers
07:00 Legend Double Dagger 4.4 3.5 94 18 39 12.9 100.61     Rain Showers
08:00 Legend Double Dagger 4.4 3.5 94 18 34 6.4 100.67     Rain Showers
09:00 Legend Double Dagger 4.4 3.7 95 18 41 3.2 100.66     Rain Showers,Fog
10:00 Legend Double Dagger 4.4 3.8 96 18 40 4.8 100.68     Rain Showers,Fog
11:00 Legend Double Dagger 4.1 3.7 97 18 39 6.4 100.65     Rain Showers,Fog
12:00 Legend Double Dagger 4.1 3.7 97 19 44 4.8 100.68     Rain Showers,Fog
13:00 Legend Double Dagger 3.9 3.5 97 19 42 2.0 100.68     Rain Showers,Fog
14:00 Legend Double Dagger 3.9 3.6 98 19 33 1.6 100.68     Rain Showers,Fog
15:00 Legend Double Dagger 3.7 3.4 98 18 31 0.8 100.68     Rain Showers,Fog
16:00 Legend Double Dagger 3.6 3.3 98 18 33 0.2 100.67     Rain Showers,Fog
17:00 Legend Double Dagger 3.5 3.2 98 18 21 0.2 100.68     Rain Showers,Fog
18:00 Legend Double Dagger 3.5 3.4 99 18 22 0.0 100.65     Rain Showers,Fog
19:00 Legend Double Dagger 3.3 3.2 99 18 22 0.2 100.62     Rain Showers,Fog
20:00 Legend Double Dagger 3.3 3.2 99 19 22 0.2 100.61     Rain Showers,Fog
21:00 Legend Double Dagger 3.2 3.1 99 20 14 0.2 100.62     Rain Showers,Fog
22:00 Legend Double Dagger 3.1 3.0 99 19 11 0.0 100.56     Rain Showers,Fog
23:00 Legend Double Dagger 2.9 2.8 99 28 5 0.4 100.53     Rain Showers,Fog

Notes on Data Quality.

Legend

  • E = Estimated
  • M = Missing
  • NA = Not Available
  • ‡ = Partner data that is not subject to review by the National Climate Archives
Date modified: